Showing default

GJZ 03, 62292

Orbit data source: Space-Track

GJZ 03, 62292 is a payload satellite owned by CASC (CN) in LEO that was launched on Thu, 12 Dec 2024 UTC via a CHANG ZHENG 2D/YZ-3 launch vehicle from the Jiuquan Satellite Launch Center, China (JSC). Payload-class satellites include a variety of spacecraft equipped with specific instruments for various scientific and technological missions. These include communications satellites like Starlink; space stations such as the ISS; scientific satellites like the Hubble; Earth observation satellites from companies like Planet Labs, Umbra, and HawkEye 360; GPS; miniature CubeSats for education and research; and military/defense satellites.

Loading next visibility...
Identifier
62292, 2024-238C
Orbit
LEO
Country
Flag of CNCN / PRC
Related business
Manufacturer
HITSAT
Mission
Operational Civil Communications
Bus & Motor
HARBFLAT, Unknown motor
Mass
~150 kg wet, ~150 kg dry
Launch date (UTC)
2024-12-12 (1 year ago)
Launch vehicle
CHANG ZHENG 2D/YZ-3
Launch site
Jiuquan Satellite Launch Center, China (JSC)
Object type
Payload
Rocket body
Debris
Shape & HBR
Box + 2 Pan, 1.5 m
Radar Cross Section
0.240 m², Large (>1 m²)

Expand to show TLE details & history
Last TLE update: 6 days ago

TLE from 6 days ago
0 GJZ 03
1 62292U 24238C   26155.25718485 -.00000058  00000-0  63792-4 0  9994
2 62292  59.9137 310.1519 0016921 352.3955   7.6793 13.75205083 74117
Epoch: 2026-06-04T06:10Z
TLE epoch observation values (Epoch: 2026-06-04T06:10:20.771Z)
Latitude
-0.00006°
Longitude
-35.13873°
Altitude
970.087 km
Speed
7.374 km/s
True Right ascension
20h 40m 36s
True Declination
0° 00' 00"
Sunlit
Object was in daylight at epoch
Visualization orbit readout
Latitude
Unknown
Longitude
Unknown
Altitude
Unknown
Speed
Unknown
Apparent Right ascension
Unknown
Apparent Declination
Unknown
Sunlit
N/A
Visualization observer readout
Local Sidereal Time
06:08:48
Azimuth
Unknown
Elevation
Unknown
Doppler factor
Unknown
Orbital elements
Apogee altitude
992.662 km
Perigee altitude
967.76 km
Semi-major axis
7,358.348 km
Eccentricity
0.00169
Inclination
59.9137°
RAAN
310.1519°
Arg. of periapsis
352.3955°
True anomaly
7.70526°
Mean anomaly
7.6793°
Eccentric anomaly
7.69228°
Mean motion
3.43853 °/min
Orbital period
104.7 mins
BSTAR
0.000063792
Loading maneuver chart data...
Computing Atmospheric mass density...
Loading historical data...
Loading historical data...
Loading historical data...
Loading historical data...
Loading historical data...
Loading historical data...
Loading historical data...
Other satellites on launch #238 in the year 2024 (2024-12-12 UTC)

Documentation

Showing up to 5 results
|